Погода в Петровичах

Россия / Приморский край     44°22′55″N   132°16′32″E
темп.,
°C
ветер,
м/с
пор.,
м/с
влажн.,
%
обл.,
%
осадки,
мм/ч
давл.,
гПа
погр.,
м
6 мая, чт
чт601:00+8ююз6128194 0.2 1003259
04:00+7ююз714802 0.2 1003280
07:00+7ююз613783 0.0 1004270
10:00+13ююз710534 0.0 1005597
13:00+19ююз7103620 0.0 10041652
16:00+19ю81147100 0.0 1002953
19:00+16ююз8155497 0.1 1002394
22:00+11юз51078100 1.6 1006347
7 мая, пт
пт701:00+9ююз410834 0.1 1005228
04:00+8ююз512875 0.1 1003264
07:00+9ююз4128628 0.0 1001302
10:00+15ю71358100 0.0 999919
13:00+16ю91552100 0.0 9951150
16:00+13ю61764100 0.6 9911333
19:00+12ю12177698 0.3 9881308
22:00+10ююз91580100 0.4 989968
8 мая, сб
сб801:00+9ююз81389100 1.4 987798
04:00+9юз71381100 2.6 988712
07:00+9юз598191 0.5 991336
10:00+12ююз6865100 0.5 992859
13:00+12юз51271100 0.3 992933
16:00+13ю6969100 0.4 989853
19:00+10ю61092100 2.9 988655
22:00+8зсз3694100 4.4 989277
9 мая, вс
вс901:00+6зсз101590100 2.3 990845
04:00+5зсз91694100 8.6 992963
07:00+5сз81594100 1.8 9951003
10:00+7сз71283100 1.9 9981129
13:00+10сз51166100 0.1 9991752
16:00+12сз71253100 0.3 10001941
19:00+11ссз596382 0.2 1002626
22:00+8ссз11715 0.2 100410
10 мая, пн
пн1001:00+7ююз22765 0.0 100511
04:00+6зюз22765 0.0 100632
07:00+6зюз23770 0.0 100771
10:00+12с34536 0.0 1008603
13:00+14всв3350100 0.0 10081022
16:00+14всв545279 0.0 1007726
19:00+12всв357298 1.0 1007184
22:00+10св2275100 1.1 100952